Location: Salamanca
(40.9670°N, 5.6500°W)
Time: 17:36:07
(UTC+02:00)

Daily predictions for brighter satellites

Satellite Brightness Start Highest point End
(mag) Time Altitude Azimuth Time Altitude Azimuth Time Altitude Azimuth
ATLAS CENTAUR R/B 4.0 21:54:08 10° SSW 21:59:42 56° ESE 22:15:51 10° NE
CENTAUR R/B 3.0 22:10:10 10° S 22:15:22 34° ESE 22:21:10 10° NE
Okean 3 4.3 22:11:35 10° SSW 22:15:48 57° W 22:20:01 10° N
Cosmos 1378 Rocket 3.6 22:13:51 10° S 22:18:09 86° W 22:22:29 10° N
Cosmos 1570 Rocket 4.3 22:15:50 10° SSW 22:21:10 79° WNW 22:26:34 10° NNE
Cosmos 1975 Rocket 3.3 22:18:55 10° SSE 22:23:04 48° E 22:27:14 10° NNE
deb Kosmos-1763 4.0 22:21:11 10° SSW 22:24:51 76° ESE 22:28:34 10° NNE
Okean 1 Rocket 3.3 22:20:58 10° NNW 22:25:19 74° W 22:29:37 10° S
BREEZE-M DEB (TANK) 2.1 22:23:23 10° WNW 22:26:33 42° SW 22:28:25 11° SSE
CZ-4C R/B 4.4 22:21:29 10° NNW 22:26:50 23° NE 22:32:41 10° E
ATLAS 3B R/B 3.8 22:23:10 10° SW 22:30:08 52° NW 22:36:52 10° NNE
Cosmos 2233 Rocket 4.0 22:24:26 10° S 22:30:33 76° E 22:36:46 10° N
Cosmos 1975 2.8 22:27:10 10° N 22:31:14 89° W 22:35:13 10° S
ERS-2 2.7 22:27:37 10° S 22:31:15 59° WSW 22:34:55 10° NNW
ERS-1 Rocket 4.3 22:27:54 10° ESE 22:31:52 24° ENE 22:35:51 10° NNE
Meteor 1-12 Rocket 4.4 22:27:31 10° N 22:33:31 78° E 22:39:31 10° SSE
Cosmos 292 Rocket 4.4 22:29:20 10° SSE 22:33:38 35° ESE 22:37:56 10° NE
Cosmos 1666 2.7 22:30:15 10° N 22:34:09 83° E 22:38:00 10° S
Cosmos 2084 3.4 22:30:02 10° SW 22:34:22 89° WNW 22:38:30 10° NE
Abrixas rocket 3.4 22:36:15 10° W 22:39:21 43° NNW 22:42:27 10° NE
Cosmos 1544 Rocket 4.4 22:35:32 10° N 22:39:37 35° ENE 22:43:08 13° SE
Cosmos 1898 Rocket 3.6 22:35:11 10° NNW 22:40:31 85° WSW 22:45:51 10° SSE
USA 186 4.1 22:39:32 10° SSW 22:42:15 25° W 22:45:06 10° NW
Cosmos 1814 Rocket 4.0 22:38:42 10° S 22:43:53 68° ESE 22:49:10 10° NNE
ISS -1.1 22:42:18 10° WNW 22:44:53 21° NNW 22:47:29 10° NNE
Meteor 2-4 Rocket 3.8 22:42:31 10° S 22:47:48 56° E 22:53:15 10° NNE
Tiangong 2 1.5 22:44:42 10° W 22:47:50 64° N 22:50:57 10° ENE
ATLAS CENTAUR R/B 4.2 22:45:05 10° WNW 22:47:56 16° WSW 22:50:51 10° SSW
Cosmos 1743 2.9 22:45:05 10° NNW 22:48:54 69° W 22:52:40 10° S
SJ 16-02 2.9 22:46:13 10° N 22:49:43 22° ENE 22:52:24 14° ESE
H-2A R/B 2.5 22:46:33 14° SE 22:50:32 43° ENE 22:55:18 10° N
BREEZE-M DEB (TANK) 3.1 22:49:47 10° WNW 22:52:00 39° SSW 22:54:44 16° SSE
Shenzhou-11 Module 1.8 22:49:50 10° WNW 22:52:49 89° N 22:54:50 19° ESE
Iridium 2 3.6 22:49:27 10° S 22:53:15 79° E 22:57:06 10° N
Helios 1B rocket 4.3 22:51:20 10° ENE 22:53:17 13° E 22:53:51 13° E
Cosmos 990 Rocket 4.0 22:48:37 10° NNW 22:53:52 90° WSW 22:58:37 13° SSE
Cosmos 1536 Rocket 4.3 22:53:28 15° SSE 22:56:32 34° E 23:00:33 10° NNE
ARGOS 3.2 22:51:55 13° SSE 22:56:43 65° ENE 23:02:05 10° N
Resurs 01 Rocket 3.0 22:54:31 10° SSW 22:58:34 36° W 23:02:38 10° NNW
Cosmos 2322 Rocket 2.4 22:55:55 10° NNW 23:01:31 70° WSW 23:06:31 13° SSE
SL-08 RB Rocket 4.0 22:58:16 17° SE 23:01:34 53° ENE 23:06:01 10° N
Cosmos 1356 3.7 23:01:01 17° SSE 23:03:22 46° E 23:06:43 10° NNE
SL-16 R/B 2.8 23:05:58 10° NNW 23:11:30 55° WSW 23:16:31 12° S
Lacrosse 5 rocket 2.0 23:08:46 10° NW 23:12:59 47° NE 23:15:24 21° ESE
Cosmos 1513 Rocket 4.5 23:09:44 11° S 23:15:34 65° E 23:21:41 10° NNE
Cosmos 1515 3.7 23:15:59 21° S 23:18:24 63° E 23:22:13 10° NNE
Cosmos 2034 Rocket 4.1 23:15:14 16° SSE 23:20:07 56° E 23:26:07 10° NNE
Aureole 2 Rocket 2.0 23:17:22 10° NNW 23:20:15 70° WSW 23:21:11 37° S
Cosmos 2150 Rocket 4.1 23:15:15 10° NNW 23:20:37 75° WSW 23:24:23 19° S
Cosmos 1464 Rocket 4.0 23:16:41 10° S 23:23:03 83° E 23:29:27 10° N
MetOp-B 4.1 23:19:52 18° SSE 23:23:54 86° WSW 23:29:17 10° NNW
Cosmos 540 Rocket 3.4 23:24:06 10° SSW 23:29:14 76° ESE 23:34:25 10° NNE
Cosmos 2219 4.2 23:29:11 25° SE 23:30:36 28° ESE 23:35:24 10° NE
Cosmos 2237 4.3 23:26:15 10° NNW 23:31:58 66° ENE 23:35:02 28° SE
Cosmos 1340 Rocket 3.7 23:32:13 10° SSW 23:36:09 50° WNW 23:40:08 10° N
USA 234 3.6 23:30:07 10° NE 23:36:37 68° NW 23:43:07 10° WSW
Cosmos 1025 Rocket 3.5 23:36:54 34° SE 23:38:05 43° E 23:42:14 10° NNE
Meteor 1-15 Rocket 4.2 23:36:09 10° N 23:41:54 84° E 23:45:01 28° SSE
SPOT 5 2.7 23:40:13 35° SE 23:41:58 66° ENE 23:46:32 10° N
Terra 2.7 23:41:41 27° ESE 23:43:16 35° ENE 23:47:33 10° N
USA 245 3.5 23:46:06 36° S 23:47:25 66° W 23:51:47 10° NNW
Cosmos 1455 Rocket 4.3 23:45:54 10° NNW 23:49:55 37° W 23:52:55 16° SSW
Spot 1 4.5 23:49:08 37° ESE 23:50:01 43° ENE 23:53:54 10° N
Cosmos 2360 Rocket 2.4 23:45:08 10° NNW 23:50:43 64° WSW 23:53:38 29° S
CZ-2C R/B 3.9 23:46:33 10° NE 23:51:00 24° E 23:51:32 23° ESE
DELTA 2 R/B (1) 4.3 23:46:22 10° SW 23:50:24 31° S 23:50:24 31° S
Cosmos 2219 Rocket 2.9 23:49:01 10° N 23:54:17 40° ENE 23:56:29 28° ESE
